Time,TemperatureF,DewpointF,PressureIn,WindDirection,WindDirectionDegrees,WindSpeedMPH,WindSpeedGustMPH,Humidity,HourlyPrecipIn,Conditions,Clouds,dailyrainin,SoftwareType,DateUTC
2013-07-11 00:00:00,80.3,72.4,29.90,North,10,0.0,0.0,77,0.00,,---,0.00,VWS V14.01,2013-07-11 05:00:00,
2013-07-11 00:01:00,80.5,72.6,29.90,North,9,0.0,0.0,77,0.00,,---,0.00,VWS V14.01,2013-07-11 05:01:00,
2013-07-11 00:06:00,80.3,72.4,29.90,North,10,0.0,0.0,77,0.00,,---,0.00,VWS V14.01,2013-07-11 05:06:00,
2013-07-11 00:11:00,80.2,72.3,29.90,North,10,0.0,0.0,77,0.00,,---,0.00,VWS V14.01,2013-07-11 05:11:00,
2013-07-11 00:16:00,80.1,72.2,29.90,North,10,0.0,0.0,77,0.00,,---,0.00,VWS V14.01,2013-07-11 05:16:00,
2013-07-11 00:21:00,80.0,72.2,29.89,North,10,0.0,0.0,77,0.00,,---,0.00,VWS V14.01,2013-07-11 05:21:00,
2013-07-11 00:26:00,79.9,72.1,29.89,North,10,0.0,0.0,77,0.00,,---,0.00,VWS V14.01,2013-07-11 05:26:00,
2013-07-11 00:30:00,79.7,72.2,29.89,North,9,0.0,0.0,78,0.00,,---,0.00,VWS V14.01,2013-07-11 05:30:00,
2013-07-11 00:31:00,79.8,72.3,29.89,North,10,0.0,0.0,78,0.00,,---,0.00,VWS V14.01,2013-07-11 05:31:00,
2013-07-11 00:36:00,79.7,72.2,29.89,North,10,0.0,0.0,78,0.00,,---,0.00,VWS V14.01,2013-07-11 05:36:00,
2013-07-11 00:41:00,79.6,72.1,29.88,North,10,0.0,0.0,78,0.00,,---,0.00,VWS V14.01,2013-07-11 05:41:00,
2013-07-11 00:46:00,79.6,72.1,29.89,North,10,0.0,0.0,78,0.00,,---,0.00,VWS V14.01,2013-07-11 05:46:00,
2013-07-11 00:51:00,79.5,72.0,29.89,North,10,0.0,0.0,78,0.00,,---,0.00,VWS V14.01,2013-07-11 05:51:00,
2013-07-11 00:56:00,79.4,71.9,29.89,North,10,0.0,0.0,78,0.00,,---,0.00,VWS V14.01,2013-07-11 05:56:00,
2013-07-11 01:00:00,79.2,71.8,29.89,North,10,0.0,0.0,78,0.00,,---,0.00,VWS V14.01,2013-07-11 06:00:00,
2013-07-11 01:01:00,79.3,71.8,29.89,North,10,0.0,0.0,78,0.00,,---,0.00,VWS V14.01,2013-07-11 06:01:00,
2013-07-11 01:06:00,79.2,71.8,29.89,North,10,0.0,0.0,78,0.00,,---,0.00,VWS V14.01,2013-07-11 06:06:00,
2013-07-11 01:11:00,79.1,71.7,29.89,North,10,0.0,0.0,78,0.00,,---,0.00,VWS V14.01,2013-07-11 06:11:00,
2013-07-11 01:16:00,79.1,71.7,29.89,North,10,0.0,0.0,78,0.00,,---,0.00,VWS V14.01,2013-07-11 06:16:00,
2013-07-11 01:21:00,79.2,71.8,29.89,North,10,0.0,0.0,78,0.00,,---,0.00,VWS V14.01,2013-07-11 06:21:00,
2013-07-11 01:26:00,79.3,71.8,29.89,North,10,0.0,0.0,78,0.00,,---,0.00,VWS V14.01,2013-07-11 06:26:00,
2013-07-11 01:30:00,79.2,72.1,29.89,North,10,0.0,0.0,79,0.00,,---,0.00,VWS V14.01,2013-07-11 06:30:00,
2013-07-11 01:31:00,79.3,72.2,29.89,North,10,0.0,0.0,79,0.00,,---,0.00,VWS V14.01,2013-07-11 06:31:00,
2013-07-11 01:36:00,79.2,72.1,29.89,North,10,0.0,0.0,79,0.00,,---,0.00,VWS V14.01,2013-07-11 06:36:00,
2013-07-11 01:41:00,79.1,72.0,29.89,North,10,0.0,0.0,79,0.00,,---,0.00,VWS V14.01,2013-07-11 06:41:00,
2013-07-11 01:46:00,79.0,72.3,29.89,North,10,0.0,0.0,80,0.00,,---,0.00,VWS V14.01,2013-07-11 06:46:00,
2013-07-11 01:51:00,78.9,72.6,29.89,North,10,0.0,0.0,81,0.00,,---,0.00,VWS V14.01,2013-07-11 06:51:00,
2013-07-11 01:56:00,78.7,72.4,29.88,North,10,0.0,0.0,81,0.00,,---,0.00,VWS V14.01,2013-07-11 06:56:00,
2013-07-11 02:01:00,78.6,72.3,29.89,North,9,0.0,0.0,81,0.00,,---,0.00,VWS V14.01,2013-07-11 07:01:00,
2013-07-11 02:06:00,78.6,72.3,29.89,North,10,0.0,0.0,81,0.00,,---,0.00,VWS V14.01,2013-07-11 07:06:00,
2013-07-11 02:11:00,78.5,71.8,29.89,North,10,0.0,0.0,80,0.00,,---,0.00,VWS V14.01,2013-07-11 07:11:00,
2013-07-11 02:16:00,78.5,72.2,29.89,North,10,0.0,0.0,81,0.00,,---,0.00,VWS V14.01,2013-07-11 07:16:00,
2013-07-11 02:21:00,78.5,72.2,29.89,North,10,0.0,0.0,81,0.00,,---,0.00,VWS V14.01,2013-07-11 07:21:00,
2013-07-11 02:26:00,78.5,72.2,29.89,North,10,0.0,0.0,81,0.00,,---,0.00,VWS V14.01,2013-07-11 07:26:00,
2013-07-11 02:31:00,78.5,72.2,29.89,North,10,0.0,0.0,81,0.00,,---,0.00,VWS V14.01,2013-07-11 07:31:00,
2013-07-11 02:36:00,78.4,72.1,29.89,North,10,0.0,0.0,81,0.00,,---,0.00,VWS V14.01,2013-07-11 07:36:00,
2013-07-11 02:41:00,78.4,72.1,29.89,North,10,0.0,0.0,81,0.00,,---,0.00,VWS V14.01,2013-07-11 07:41:00,
2013-07-11 02:46:00,78.3,72.0,29.89,North,10,0.0,0.0,81,0.00,,---,0.00,VWS V14.01,2013-07-11 07:46:00,
2013-07-11 02:51:00,78.2,71.9,29.89,North,10,0.0,0.0,81,0.00,,---,0.00,VWS V14.01,2013-07-11 07:51:00,
2013-07-11 02:56:00,78.1,71.8,29.89,North,10,0.0,0.0,81,0.00,,---,0.00,VWS V14.01,2013-07-11 07:56:00,
2013-07-11 03:01:00,78.0,71.7,29.89,North,10,0.0,0.0,81,0.00,,---,0.00,VWS V14.01,2013-07-11 08:01:00,
2013-07-11 03:06:00,78.0,72.1,29.90,North,10,0.0,0.0,82,0.00,,---,0.00,VWS V14.01,2013-07-11 08:06:00,
2013-07-11 03:11:00,77.8,71.9,29.89,North,10,0.0,0.0,82,0.00,,---,0.00,VWS V14.01,2013-07-11 08:11:00,
2013-07-11 03:16:00,77.6,72.0,29.90,North,10,0.0,0.0,83,0.00,,---,0.00,VWS V14.01,2013-07-11 08:16:00,
2013-07-11 03:20:00,77.4,71.8,29.90,North,10,0.0,0.0,83,0.00,,---,0.00,VWS V14.01,2013-07-11 08:20:00,
2013-07-11 03:26:00,77.3,71.7,29.90,North,10,0.0,0.0,83,0.00,,---,0.00,VWS V14.01,2013-07-11 08:26:00,
2013-07-11 04:00:00,76.7,71.5,29.89,North,0,0.0,0.0,84,0.00,,---,0.00,VWS V14.01,2013-07-11 09:00:00,
2013-07-11 04:30:00,76.3,71.5,29.89,North,0,0.0,0.0,85,0.00,,---,0.00,VWS V14.01,2013-07-11 09:30:00,
2013-07-11 05:00:00,76.1,71.6,29.89,North,0,0.0,0.0,86,0.00,,---,0.00,VWS V14.01,2013-07-11 10:00:00,
2013-07-11 05:30:00,75.4,71.3,29.89,North,0,0.0,0.0,87,0.00,,---,0.00,VWS V14.01,2013-07-11 10:30:00,
2013-07-11 06:00:00,74.8,71.3,29.90,North,0,0.0,0.0,89,0.00,,---,0.00,VWS V14.01,2013-07-11 11:00:00,
2013-07-11 06:30:00,74.8,71.3,29.90,North,0,0.0,0.0,89,0.00,,---,0.00,VWS V14.01,2013-07-11 11:30:00,
2013-07-11 07:00:00,77.7,72.8,29.90,North,0,0.0,0.0,85,0.00,,---,0.00,VWS V14.01,2013-07-11 12:00:00,
2013-07-11 07:30:00,81.2,73.7,29.91,North,0,0.0,0.0,78,0.00,,---,0.00,VWS V14.01,2013-07-11 12:30:00,
2013-07-11 08:00:00,84.4,74.0,29.91,North,0,0.0,0.0,71,0.00,,---,0.00,VWS V14.01,2013-07-11 13:00:00,
2013-07-11 09:00:00,87.6,76.2,29.91,North,0,0.0,0.0,69,0.00,,---,0.00,VWS V14.01,2013-07-11 14:00:00,
2013-07-11 09:30:00,88.0,76.6,29.90,North,0,0.0,0.0,69,0.00,,---,0.00,VWS V14.01,2013-07-11 14:30:00,
2013-07-11 10:00:00,87.6,76.2,29.91,North,0,0.0,0.0,69,0.00,,---,0.00,VWS V14.01,2013-07-11 15:00:00,
2013-07-11 10:30:00,89.1,76.3,29.91,North,0,0.0,0.0,66,0.00,,---,0.00,VWS V14.01,2013-07-11 15:30:00,
2013-07-11 11:00:00,89.9,77.0,29.92,North,0,0.0,0.0,66,0.00,,---,0.00,VWS V14.01,2013-07-11 16:00:00,
2013-07-11 11:30:00,91.2,77.3,29.91,North,0,0.0,0.0,64,0.00,,---,0.00,VWS V14.01,2013-07-11 16:30:00,
2013-07-11 12:00:00,90.4,76.6,29.91,North,0,0.0,0.0,64,0.00,,---,0.00,VWS V14.01,2013-07-11 17:00:00,
2013-07-11 12:30:00,92.1,76.2,29.90,North,0,0.0,0.0,60,0.00,,---,0.00,VWS V14.01,2013-07-11 17:30:00,
2013-07-11 13:00:00,92.9,75.9,29.90,North,0,0.0,0.0,58,0.00,,---,0.00,VWS V14.01,2013-07-11 18:00:00,
2013-07-11 13:30:00,93.9,77.9,29.88,North,0,0.0,0.0,60,0.00,,---,0.00,VWS V14.01,2013-07-11 18:30:00,
2013-07-11 14:30:00,93.3,77.8,29.88,North,0,0.0,0.0,61,0.00,,---,0.00,VWS V14.01,2013-07-11 19:30:00,
2013-07-11 15:00:00,94.1,76.6,29.88,North,0,0.0,0.0,57,0.00,,---,0.00,VWS V14.01,2013-07-11 20:00:00,
2013-07-11 15:30:00,93.8,75.7,29.87,North,0,0.0,0.0,56,0.00,,---,0.00,VWS V14.01,2013-07-11 20:30:00,
2013-07-11 16:30:00,93.7,72.3,29.87,North,0,0.0,0.0,50,0.00,,---,0.00,VWS V14.01,2013-07-11 21:30:00,
2013-07-11 17:00:00,92.8,70.2,29.87,North,0,0.0,0.0,48,0.00,,---,0.00,VWS V14.01,2013-07-11 22:00:00,
2013-07-11 17:30:00,93.7,71.1,29.86,North,0,0.0,0.0,48,0.00,,---,0.00,VWS V14.01,2013-07-11 22:30:00,
2013-07-11 18:00:00,91.6,69.8,29.86,North,0,0.0,0.0,49,0.00,,---,0.00,VWS V14.01,2013-07-11 23:00:00,
2013-07-11 18:30:00,90.8,69.6,29.86,North,0,0.0,0.0,50,0.00,,---,0.00,VWS V14.01,2013-07-11 23:30:00,
2013-07-11 19:00:00,89.2,69.8,29.86,North,0,0.0,0.0,53,0.00,,---,0.00,VWS V14.01,2013-07-12 00:00:00,
2013-07-11 19:30:00,86.9,69.3,29.87,North,0,0.0,0.0,56,0.00,,---,0.00,VWS V14.01,2013-07-12 00:30:00,
2013-07-11 20:00:00,84.7,67.8,29.88,North,0,0.0,0.0,57,0.00,,---,0.00,VWS V14.01,2013-07-12 01:00:00,
2013-07-11 20:30:00,83.0,67.2,29.89,North,0,0.0,0.0,59,0.00,,---,0.00,VWS V14.01,2013-07-12 01:30:00,
2013-07-11 21:00:00,81.6,66.9,29.90,North,0,0.0,0.0,61,0.00,,---,0.00,VWS V14.01,2013-07-12 02:00:00,
2013-07-11 21:55:00,79.7,66.0,29.92,North,5,0.0,0.0,63,0.00,,---,0.00,VWS V14.01,2013-07-12 02:55:00,
2013-07-11 22:00:00,79.5,66.3,29.92,NNE,19,0.0,0.0,64,0.00,,---,0.00,VWS V14.01,2013-07-12 03:00:00,
2013-07-11 22:05:00,79.3,66.1,29.92,NE,44,0.0,0.0,64,0.00,,---,0.00,VWS V14.01,2013-07-12 03:05:00,
2013-07-11 22:10:00,79.2,66.0,29.92,NNE,20,0.0,0.0,64,0.00,,---,0.00,VWS V14.01,2013-07-12 03:10:00,
2013-07-11 22:15:00,79.1,65.9,29.92,NE,49,0.0,0.0,64,0.00,,---,0.00,VWS V14.01,2013-07-12 03:15:00,
2013-07-11 22:20:00,78.9,65.7,29.92,NNE,25,0.0,0.0,64,0.00,,---,0.00,VWS V14.01,2013-07-12 03:20:00,
2013-07-11 22:25:00,78.7,66.0,29.92,NNE,15,0.0,0.0,65,0.00,,---,0.00,VWS V14.01,2013-07-12 03:25:00,
2013-07-11 22:30:00,78.6,65.9,29.92,NNE,14,0.0,0.0,65,0.00,,---,0.00,VWS V14.01,2013-07-12 03:30:00,
2013-07-11 22:35:00,78.4,65.7,29.92,NE,46,0.0,0.0,65,0.00,,---,0.00,VWS V14.01,2013-07-12 03:35:00,
2013-07-11 22:40:00,78.2,65.9,29.92,NNE,19,0.0,0.0,66,0.00,,---,0.00,VWS V14.01,2013-07-12 03:40:00,
2013-07-11 22:45:00,78.0,65.7,29.92,NNE,22,0.0,0.0,66,0.00,,---,0.00,VWS V14.01,2013-07-12 03:45:00,
2013-07-11 22:50:00,77.8,65.5,29.92,NNE,27,0.0,0.0,66,0.00,,---,0.00,VWS V14.01,2013-07-12 03:50:00,
2013-07-11 22:55:00,77.6,65.3,29.92,NNE,28,0.0,0.0,66,0.00,,---,0.00,VWS V14.01,2013-07-12 03:55:00,
2013-07-11 23:01:00,77.5,65.3,29.93,WNW,288,0.0,0.0,66,0.00,,---,0.00,VWS V14.01,2013-07-12 04:01:00,
2013-07-11 23:06:00,77.3,65.1,29.93,NNE,15,0.0,0.0,66,0.00,,---,0.00,VWS V14.01,2013-07-12 04:06:00,
2013-07-11 23:11:00,77.2,65.4,29.93,NE,52,0.0,0.0,67,0.00,,---,0.00,VWS V14.01,2013-07-12 04:11:00,
2013-07-11 23:16:00,77.1,65.3,29.93,NE,35,0.0,0.0,67,0.00,,---,0.00,VWS V14.01,2013-07-12 04:16:00,
2013-07-11 23:21:00,77.0,65.2,29.93,NE,41,0.0,0.0,67,0.00,,---,0.00,VWS V14.01,2013-07-12 04:21:00,
2013-07-11 23:26:00,76.9,65.1,29.93,NNE,26,0.0,0.0,67,0.00,,---,0.00,VWS V14.01,2013-07-12 04:26:00,
2013-07-11 23:31:00,76.7,64.9,29.93,NNE,15,0.0,0.0,67,0.00,,---,0.00,VWS V14.01,2013-07-12 04:31:00,
2013-07-11 23:36:00,76.6,64.8,29.93,NE,39,0.0,0.0,67,0.00,,---,0.00,VWS V14.01,2013-07-12 04:36:00,
2013-07-11 23:41:00,76.4,65.1,29.93,NE,43,0.0,0.0,68,0.00,,---,0.00,VWS V14.01,2013-07-12 04:41:00,
2013-07-11 23:46:00,76.2,64.9,29.93,NE,39,0.0,0.0,68,0.00,,---,0.00,VWS V14.01,2013-07-12 04:46:00,
2013-07-11 23:51:00,76.0,65.1,29.93,North,5,0.0,0.0,69,0.00,,---,0.00,VWS V14.01,2013-07-12 04:51:00,
2013-07-11 23:56:00,75.8,64.9,29.94,NNE,27,0.0,0.0,69,0.00,,---,0.00,VWS V14.01,2013-07-12 04:56:00,